Time,TemperatureF,DewpointF,PressureIn,WindDirection,WindDirectionDegrees,WindSpeedMPH,WindSpeedGustMPH,Humidity,HourlyPrecipIn,Conditions,Clouds,dailyrainin,SoftwareType,DateUTC
2013-09-24 00:13:00,53.0,-99.9,30.10,SSE,150,5.0,8.0,-999,-99.99,,,-99.99,,2013-09-24 05:13:00,
2013-09-24 00:23:00,53.0,-99.9,30.10,SSE,150,5.0,8.0,-999,-99.99,,,-99.99,,2013-09-24 05:23:00,
2013-09-24 00:34:00,53.0,-99.9,30.10,SSE,150,5.0,8.0,-999,-99.99,,,-99.99,,2013-09-24 05:34:00,
2013-09-24 00:40:00,53.0,-99.9,30.10,SSE,160,5.0,7.0,-999,-99.99,,,-99.99,,2013-09-24 05:40:00,
2013-09-24 01:13:00,53.0,-99.9,30.10,SSE,160,5.0,7.0,-999,-99.99,,,-99.99,,2013-09-24 06:13:00,
2013-09-24 01:22:00,53.0,-99.9,30.10,SSE,160,5.0,7.0,-999,-99.99,,,-99.99,,2013-09-24 06:22:00,
2013-09-24 01:32:00,53.0,-99.9,30.10,SSE,160,5.0,7.0,-999,-99.99,,,-99.99,,2013-09-24 06:32:00,
2013-09-24 01:40:00,53.0,-99.9,30.10,SSE,160,3.0,5.0,-999,-99.99,,,-99.99,,2013-09-24 06:40:00,
2013-09-24 02:12:00,53.0,-99.9,30.10,SSE,160,3.0,5.0,-999,-99.99,,,-99.99,,2013-09-24 07:12:00,
2013-09-24 02:22:00,53.0,-99.9,30.10,SSE,160,3.0,5.0,-999,-99.99,,,-99.99,,2013-09-24 07:22:00,
2013-09-24 02:32:00,53.0,-99.9,30.10,SSE,160,3.0,5.0,-999,-99.99,,,-99.99,,2013-09-24 07:32:00,
2013-09-24 02:40:00,54.0,-99.9,30.09,South,180,6.0,7.0,-999,-99.99,,,-99.99,,2013-09-24 07:40:00,
2013-09-24 03:11:00,54.0,-99.9,30.09,South,180,6.0,7.0,-999,-99.99,,,-99.99,,2013-09-24 08:11:00,
2013-09-24 03:23:00,54.0,-99.9,30.09,South,180,6.0,7.0,-999,-99.99,,,-99.99,,2013-09-24 08:23:00,
2013-09-24 03:32:00,54.0,-99.9,30.09,South,180,6.0,7.0,-999,-99.99,,,-99.99,,2013-09-24 08:32:00,
2013-09-24 03:40:00,54.0,-99.9,30.10,South,180,5.0,7.0,-999,-99.99,,,-99.99,,2013-09-24 08:40:00,
2013-09-24 04:12:00,54.0,-99.9,30.10,South,180,5.0,7.0,-999,-99.99,,,-99.99,,2013-09-24 09:12:00,
2013-09-24 04:22:00,54.0,-99.9,30.10,South,180,5.0,7.0,-999,-99.99,,,-99.99,,2013-09-24 09:22:00,
2013-09-24 04:33:00,54.0,-99.9,30.10,South,180,5.0,7.0,-999,-99.99,,,-99.99,,2013-09-24 09:33:00,
2013-09-24 04:40:00,54.0,-99.9,30.11,South,170,3.0,8.0,-999,-99.99,,,-99.99,,2013-09-24 09:40:00,
2013-09-24 05:13:00,54.0,-99.9,30.11,South,170,3.0,8.0,-999,-99.99,,,-99.99,,2013-09-24 10:13:00,
2013-09-24 05:23:00,54.0,-99.9,30.11,South,170,3.0,8.0,-999,-99.99,,,-99.99,,2013-09-24 10:23:00,
2013-09-24 05:33:00,54.0,-99.9,30.11,South,170,3.0,8.0,-999,-99.99,,,-99.99,,2013-09-24 10:33:00,
2013-09-24 05:40:00,54.0,-99.9,30.12,South,170,3.0,5.0,-999,-99.99,,,-99.99,,2013-09-24 10:40:00,
2013-09-24 06:11:00,54.0,-99.9,30.12,South,170,3.0,5.0,-999,-99.99,,,-99.99,,2013-09-24 11:11:00,
2013-09-24 06:22:00,54.0,-99.9,30.12,South,170,3.0,5.0,-999,-99.99,,,-99.99,,2013-09-24 11:22:00,
2013-09-24 06:33:00,54.0,-99.9,30.12,South,170,3.0,5.0,-999,-99.99,,,-99.99,,2013-09-24 11:33:00,
2013-09-24 06:40:00,54.0,-99.9,30.12,South,170,3.0,6.0,-999,-99.99,,,-99.99,,2013-09-24 11:40:00,
2013-09-24 07:12:00,54.0,-99.9,30.12,South,170,3.0,6.0,-999,-99.99,,,-99.99,,2013-09-24 12:12:00,
2013-09-24 07:22:00,54.0,-99.9,30.12,South,170,3.0,6.0,-999,-99.99,,,-99.99,,2013-09-24 12:22:00,
2013-09-24 07:32:00,54.0,-99.9,30.12,South,170,3.0,6.0,-999,-99.99,,,-99.99,,2013-09-24 12:32:00,
2013-09-24 07:40:00,58.0,-99.9,30.12,SSE,160,3.0,6.0,-999,-99.99,,,-99.99,,2013-09-24 12:40:00,
2013-09-24 08:11:00,58.0,-99.9,30.12,SSE,160,3.0,6.0,-999,-99.99,,,-99.99,,2013-09-24 13:11:00,
2013-09-24 08:22:00,58.0,-99.9,30.12,SSE,160,3.0,6.0,-999,-99.99,,,-99.99,,2013-09-24 13:22:00,
2013-09-24 08:32:00,58.0,-99.9,30.12,SSE,160,3.0,6.0,-999,-99.99,,,-99.99,,2013-09-24 13:32:00,
2013-09-24 08:40:00,59.0,-99.9,30.12,SSE,160,8.0,13.0,-999,-99.99,,,-99.99,,2013-09-24 13:40:00,
2013-09-24 09:12:00,59.0,-99.9,30.12,SSE,160,8.0,13.0,-999,-99.99,,,-99.99,,2013-09-24 14:12:00,
2013-09-24 09:22:00,59.0,-99.9,30.12,SSE,160,8.0,13.0,-999,-99.99,,,-99.99,,2013-09-24 14:22:00,
2013-09-24 09:32:00,59.0,-99.9,30.12,SSE,160,8.0,13.0,-999,-99.99,,,-99.99,,2013-09-24 14:32:00,
2013-09-24 09:40:00,60.0,-99.9,30.11,SSE,150,9.0,14.0,-999,-99.99,,,-99.99,,2013-09-24 14:40:00,
2013-09-24 10:11:00,60.0,-99.9,30.11,SSE,150,9.0,14.0,-999,-99.99,,,-99.99,,2013-09-24 15:11:00,
2013-09-24 10:22:00,60.0,-99.9,30.11,SSE,150,9.0,14.0,-999,-99.99,,,-99.99,,2013-09-24 15:22:00,
2013-09-24 10:33:00,60.0,-99.9,30.11,SSE,150,9.0,14.0,-999,-99.99,,,-99.99,,2013-09-24 15:33:00,
2013-09-24 10:40:00,60.0,-99.9,30.10,SE,140,11.0,14.0,-999,-99.99,,,-99.99,,2013-09-24 15:40:00,
2013-09-24 11:13:00,60.0,-99.9,30.10,SE,140,11.0,14.0,-999,-99.99,,,-99.99,,2013-09-24 16:13:00,
2013-09-24 11:23:00,60.0,-99.9,30.10,SE,140,11.0,14.0,-999,-99.99,,,-99.99,,2013-09-24 16:23:00,
2013-09-24 11:33:00,60.0,-99.9,30.10,SE,140,11.0,14.0,-999,-99.99,,,-99.99,,2013-09-24 16:33:00,
2013-09-24 11:40:00,60.0,-99.9,30.09,SE,130,11.0,14.0,-999,-99.99,,,-99.99,,2013-09-24 16:40:00,
2013-09-24 12:13:00,60.0,-99.9,30.09,SE,130,11.0,14.0,-999,-99.99,,,-99.99,,2013-09-24 17:13:00,
2013-09-24 12:23:00,60.0,-99.9,30.09,SE,130,11.0,14.0,-999,-99.99,,,-99.99,,2013-09-24 17:23:00,
2013-09-24 12:33:00,60.0,-99.9,30.09,SE,130,11.0,14.0,-999,-99.99,,,-99.99,,2013-09-24 17:33:00,
2013-09-24 12:40:00,60.0,-99.9,30.08,SE,140,10.0,13.0,-999,-99.99,,,-99.99,,2013-09-24 17:40:00,
2013-09-24 13:13:00,60.0,-99.9,30.08,SE,140,10.0,13.0,-999,-99.99,,,-99.99,,2013-09-24 18:13:00,
2013-09-24 13:22:00,60.0,-99.9,30.08,SE,140,10.0,13.0,-999,-99.99,,,-99.99,,2013-09-24 18:22:00,
2013-09-24 13:32:00,60.0,-99.9,30.08,SE,140,10.0,13.0,-999,-99.99,,,-99.99,,2013-09-24 18:32:00,
2013-09-24 13:40:00,60.0,-99.9,30.06,SE,140,10.0,11.0,-999,-99.99,,,-99.99,,2013-09-24 18:40:00,
2013-09-24 14:12:00,60.0,-99.9,30.06,SE,140,10.0,11.0,-999,-99.99,,,-99.99,,2013-09-24 19:12:00,
2013-09-24 14:22:00,60.0,-99.9,30.06,SE,140,10.0,11.0,-999,-99.99,,,-99.99,,2013-09-24 19:22:00,
2013-09-24 14:32:00,60.0,-99.9,30.06,SE,140,10.0,11.0,-999,-99.99,,,-99.99,,2013-09-24 19:32:00,
2013-09-24 14:40:00,60.0,-99.9,30.05,SSE,150,8.0,10.0,-999,-99.99,,,-99.99,,2013-09-24 19:40:00,
2013-09-24 15:12:00,60.0,-99.9,30.05,SSE,150,8.0,10.0,-999,-99.99,,,-99.99,,2013-09-24 20:12:00,
2013-09-24 15:22:00,60.0,-99.9,30.05,SSE,150,8.0,10.0,-999,-99.99,,,-99.99,,2013-09-24 20:22:00,
2013-09-24 15:32:00,60.0,-99.9,30.05,SSE,150,8.0,10.0,-999,-99.99,,,-99.99,,2013-09-24 20:32:00,
2013-09-24 15:40:00,60.0,-99.9,30.04,SE,140,8.0,9.0,-999,-99.99,,,-99.99,,2013-09-24 20:40:00,
2013-09-24 16:12:00,60.0,-99.9,30.04,SE,140,8.0,9.0,-999,-99.99,,,-99.99,,2013-09-24 21:12:00,
2013-09-24 16:22:00,60.0,-99.9,30.04,SE,140,8.0,9.0,-999,-99.99,,,-99.99,,2013-09-24 21:22:00,
2013-09-24 16:33:00,60.0,-99.9,30.04,SE,140,8.0,9.0,-999,-99.99,,,-99.99,,2013-09-24 21:33:00,
2013-09-24 16:40:00,60.0,-99.9,30.04,SE,140,9.0,10.0,-999,-99.99,,,-99.99,,2013-09-24 21:40:00,
2013-09-24 17:13:00,60.0,-99.9,30.04,SE,140,9.0,10.0,-999,-99.99,,,-99.99,,2013-09-24 22:13:00,
2013-09-24 17:24:00,60.0,-99.9,30.04,SE,140,9.0,10.0,-999,-99.99,,,-99.99,,2013-09-24 22:24:00,
2013-09-24 17:34:00,60.0,-99.9,30.04,SE,140,9.0,10.0,-999,-99.99,,,-99.99,,2013-09-24 22:34:00,
2013-09-24 17:40:00,60.0,-99.9,30.03,SE,130,8.0,9.0,-999,-99.99,,,-99.99,,2013-09-24 22:40:00,
2013-09-24 18:13:00,60.0,-99.9,30.03,SE,130,8.0,9.0,-999,-99.99,,,-99.99,,2013-09-24 23:13:00,
2013-09-24 18:23:00,60.0,-99.9,30.03,SE,130,8.0,9.0,-999,-99.99,,,-99.99,,2013-09-24 23:23:00,
2013-09-24 18:33:00,60.0,-99.9,30.03,SE,130,8.0,9.0,-999,-99.99,,,-99.99,,2013-09-24 23:33:00,
2013-09-24 18:40:00,60.0,-99.9,30.03,ESE,120,6.0,9.0,-999,-99.99,,,-99.99,,2013-09-24 23:40:00,
2013-09-24 19:12:00,60.0,-99.9,30.03,ESE,120,6.0,9.0,-999,-99.99,,,-99.99,,2013-09-25 00:12:00,
2013-09-24 19:22:00,60.0,-99.9,30.03,ESE,120,6.0,9.0,-999,-99.99,,,-99.99,,2013-09-25 00:22:00,
2013-09-24 19:33:00,60.0,-99.9,30.03,ESE,120,6.0,9.0,-999,-99.99,,,-99.99,,2013-09-25 00:33:00,
2013-09-24 19:40:00,55.0,-99.9,30.02,SE,140,2.0,6.0,-999,-99.99,,,-99.99,,2013-09-25 00:40:00,
2013-09-24 20:12:00,55.0,-99.9,30.02,SE,140,2.0,6.0,-999,-99.99,,,-99.99,,2013-09-25 01:12:00,
2013-09-24 20:22:00,55.0,-99.9,30.02,SE,140,2.0,6.0,-999,-99.99,,,-99.99,,2013-09-25 01:22:00,
2013-09-24 20:32:00,55.0,-99.9,30.02,SE,140,2.0,6.0,-999,-99.99,,,-99.99,,2013-09-25 01:32:00,
2013-09-24 20:40:00,59.0,-99.9,30.02,ESE,110,6.0,7.0,-999,-99.99,,,-99.99,,2013-09-25 01:40:00,
2013-09-24 21:12:00,59.0,-99.9,30.02,ESE,110,6.0,7.0,-999,-99.99,,,-99.99,,2013-09-25 02:12:00,
2013-09-24 21:22:00,59.0,-99.9,30.02,ESE,110,6.0,7.0,-999,-99.99,,,-99.99,,2013-09-25 02:22:00,
2013-09-24 21:32:00,59.0,-99.9,30.02,ESE,110,6.0,7.0,-999,-99.99,,,-99.99,,2013-09-25 02:32:00,
2013-09-24 21:40:00,59.0,-99.9,30.02,ESE,110,3.0,7.0,-999,-99.99,,,-99.99,,2013-09-25 02:40:00,
2013-09-24 22:12:00,59.0,-99.9,30.02,ESE,110,3.0,7.0,-999,-99.99,,,-99.99,,2013-09-25 03:12:00,
2013-09-24 22:23:00,59.0,-99.9,30.02,ESE,110,3.0,7.0,-999,-99.99,,,-99.99,,2013-09-25 03:23:00,
2013-09-24 22:34:00,59.0,-99.9,30.02,ESE,110,3.0,7.0,-999,-99.99,,,-99.99,,2013-09-25 03:34:00,
2013-09-24 22:40:00,54.0,-99.9,30.02,SSE,150,1.0,2.0,-999,-99.99,,,-99.99,,2013-09-25 03:40:00,
2013-09-24 23:14:00,54.0,-99.9,30.02,SSE,150,1.0,2.0,-999,-99.99,,,-99.99,,2013-09-25 04:14:00,
2013-09-24 23:24:00,54.0,-99.9,30.02,SSE,150,1.0,2.0,-999,-99.99,,,-99.99,,2013-09-25 04:24:00,
2013-09-24 23:34:00,54.0,-99.9,30.02,SSE,150,1.0,2.0,-999,-99.99,,,-99.99,,2013-09-25 04:34:00,
2013-09-24 23:40:00,53.0,-99.9,30.01,North,0,0.0,1.0,-999,-99.99,,,-99.99,,2013-09-25 04:40:00,